Theta_e
291 293 294 295 296 297 299 300 300 300 301 301 301 301 301 302 302 300 297 300 295 288 289 292 292 287 288 289 283 286 286 284 283 284 282 279 278 282 282 284 282 279 276 277 278 277 275 291 291 286 290 294 296 298
291 291 292 294 295 296 297 299 299 300 300 300 300 301 301 302 302 302 296 301 300 293 291 295 295 296 294 292 290 290 289 290 291 285 284 283 281 279 281 278 287 280 284 280 282 281 290 293 292 294 295 294 294 296
291 291 291 293 294 295 297 298 299 299 300 300 300 300 301 301 302 302 298 300 298 291 291 292 291 296 299 297 299 289 290 292 291 295 290 286 284 284 280 281 284 287 290 283 285 288 290 293 295 297 295 295 296 298
289 290 291 292 293 294 296 297 298 299 299 299 300 300 301 301 302 303 300 302 299 288 284 287 295 293 298 299 298 297 295 297 295 294 289 285 284 289 284 285 283 287 288 286 285 289 290 292 294 295 295 297 297 299
289 289 290 291 292 293 295 296 297 298 299 299 300 300 301 301 303 303 302 303 303 292 284 285 294 297 299 297 297 297 296 293 292 288 285 284 288 287 288 287 283 289 287 283 283 290 289 291 295 298 295 295 295 297
289 289 290 290 291 292 294 295 296 297 298 298 299 301 301 302 304 300 289 298 302 300 287 284 292 293 297 298 298 296 295 294 293 287 286 290 293 289 284 280 288 291 292 292 290 294 293 294 295 297 296 296 297 299
289 289 289 290 291 291 293 294 295 297 298 298 300 300 300 302 301 294 291 296 302 300 288 284 285 290 293 294 293 293 296 293 289 285 285 287 287 289 285 282 289 291 292 292 293 293 290 293 291 295 296 299 300 299
289 289 289 289 290 291 293 294 295 297 298 299 300 300 302 302 301 296 301 301 302 295 293 284 285 286 292 287 286 291 286 286 286 286 287 286 286 287 282 287 290 291 292 292 293 294 293 294 294 294 296 296 296 296
288 289 288 289 290 291 292 294 295 297 298 299 298 302 298 295 291 295 300 302 301 295 286 284 280 277 292 288 288 288 289 283 289 285 285 284 279 278 285 288 288 290 289 290 292 293 293 292 293 294 294 294 296 295
288 288 288 289 290 291 292 294 295 297 298 297 294 290 285 291 298 299 297 292 291 291 293 283 286 284 288 287 286 284 285 283 281 282 284 280 281 289 290 291 292 294 294 294 291 291 292 292 293 294 293 296 297 296
288 288 288 289 290 290 292 293 295 297 297 291 285 285 292 297 293 289 285 285 286 283 285 286 286 281 288 282 284 285 283 282 279 281 280 281 280 287 292 293 295 295 294 294 294 294 295 295 295 295 296 298 298 296
288 288 288 289 289 290 291 293 295 293 293 290 290 292 291 287 284 283 283 284 284 281 284 282 283 285 286 290 281 282 282 279 278 286 282 278 281 288 289 291 292 292 293 292 294 294 297 298 295 294 293 294 294 292
288 288 288 289 289 289 291 292 294 296 296 293 288 284 285 284 280 279 276 281 280 284 285 288 285 286 284 285 282 279 275 275 285 276 277 278 286 289 289 291 292 292 291 289 293 294 297 295 294 290 288 288 288 286
288 288 288 288 289 289 290 292 293 294 293 286 283 280 281 279 281 282 282 282 284 286 287 287 285 285 284 281 282 275 281 282 275 272 274 280 286 288 289 291 290 289 288 287 289 288 287 286 285 285 284 285 285 284
287 288 288 288 289 289 291 292 293 296 290 284 284 280 280 286 287 287 289 287 288 290 287 286 285 285 283 281 282 281 276 277 274 273 281 285 287 286 285 286 285 286 285 284 285 284 284 284 284 283 284 284 284 284
287 287 285 288 290 293 292 292 295 293 288 286 286 283 284 284 285 286 286 284 289 288 288 287 283 281 279 282 278 275 277 272 279 282 284 285 285 284 284 284 285 285 284 284 284 284 284 283 283 283 284 284 284 284
287 282 287 289 291 293 293 291 291 288 284 285 282 285 284 283 283 283 285 284 289 287 284 285 279 281 283 280 280 281 278 281 283 283 284 285 285 285 284 285 284 284 284 284 284 284 284 284 285 284 283 284 285 284
282 286 287 289 290 293 291 290 289 286 283 285 281 283 286 286 284 284 285 287 288 285 286 283 285 280 276 279 278 283 281 284 283 283 284 284 286 285 285 284 284 284 284 284 284 284 284 284 283 283 283 283 282 282
285 286 287 288 288 288 286 288 290 283 283 283 283 285 286 285 285 287 287 288 290 290 285 283 281 280 281 283 283 281 284 281 281 284 284 285 285 285 285 285 285 285 285 285 285 284 284 284 283 283 282 282 280 280
286 286 287 288 288 285 286 286 291 285 281 282 284 284 284 283 286 284 284 286 286 283 279 279 280 282 282 283 286 284 286 283 284 281 283 284 285 285 285 285 285 285 285 284 284 284 283 282 283 283 282 281 279 278
285 286 288 289 287 287 287 284 284 285 284 282 284 284 282 284 283 284 284 286 282 281 279 282 282 283 285 285 287 289 288 286 283 283 283 283 286 287 286 286 285 284 283 282 281 281 281 280 281 281 279 279 279 279
284 289 289 289 285 287 286 287 285 286 283 283 284 284 281 280 280 281 285 280 279 281 282 283 284 284 285 286 287 288 287 286 286 286 287 287 285 284 284 284 283 282 282 281 281 280 280 281 280 279 278 278 277 276
285 287 288 286 282 281 279 288 283 284 279 281 284 282 281 282 283 286 280 283 283 285 285 285 285 286 286 286 287 287 287 287 286 286 286 285 285 285 284 283 283 281 280 280 281 280 279 279 278 277 276 275 274 273
287 285 282 281 281 275 283 280 283 283 282 281 281 278 280 281 285 282 278 282 283 285 285 285 286 286 286 286 286 286 286 287 285 285 285 284 282 281 282 282 281 282 281 281 280 280 280 279 278 276 274 273 270 268
280 279 279 272 280 276 274 277 279 280 276 279 278 277 279 283 277 277 276 281 283 284 285 285 285 285 284 284 285 285 286 286 283 282 283 283 282 281 281 281 281 281 282 279 276 272 270 269 268 269 270 268 267 265
273 274 274 276 276 276 278 273 274 274 277 276 278 281 282 277 273 275 281 283 284 285 285 285 285 284 284 285 284 283 282 284 284 282 282 283 281 279 278 277 277 278 281 279 274 271 269 267 266 264 264 264 262 263
269 272 281 285 282 281 278 279 281 278 273 271 277 276 275 269 269 279 282 284 283 285 287 287 284 283 281 281 281 281 281 281 279 277 278 277 277 278 279 276 275 277 279 276 273 270 267 265 264 263 262 261 259 259
279 280 272 278 278 281 274 275 274 273 277 281 278 272 271 270 274 281 281 284 286 286 285 285 284 283 281 279 278 277 276 276 276 276 276 275 274 272 271 270 271 271 270 271 270 269 266 265 263 260 260 262 261 257
278 282 280 272 275 277 277 277 278 281 282 281 273 272 275 278 281 281 282 283 284 283 281 280 280 280 280 280 278 278 277 275 273 269 269 270 269 268 268 268 267 267 268 268 270 267 265 265 263 261 259 260 259 259
278 283 276 272 269 274 278 281 280 279 280 279 278 278 277 277 278 282 283 283 282 281 281 281 281 281 280 280 278 278 280 276 273 272 271 270 270 271 269 267 266 265 265 265 265 265 267 265 265 263 261 258 257 256
282 280 276 276 273 279 282 282 282 280 278 277 277 274 273 276 278 278 277 281 283 283 282 281 281 282 281 279 276 274 273 276 274 274 274 273 272 271 270 268 266 265 265 264 263 262 261 260 260 259 257 256 255 252
280 275 272 270 276 280 281 281 278 277 275 273 274 275 273 271 270 275 277 278 282 282 281 279 276 275 277 276 274 274 273 274 273 272 271 271 270 268 268 267 266 265 264 263 262 261 260 259 258 257 256 255 253 253
279 278 277 275 275 277 277 278 276 275 275 276 278 277 273 270 268 273 277 277 278 277 274 272 272 271 271 270 269 269 269 270 269 271 269 268 267 268 266 264 263 262 262 262 261 260 259 258 257 256 255 254 253 253
Wind_Speed
9 10 10 13 12 10 10 11 11 12 13 14 16 18 19 21 23 16 9 13 12 10 14 13 25 24 13 7 13 2 5 4 3 10 5 6 7 9 7 13 6 8 3 5 6 9 14 24 12 16 16 8 6 6
10 9 10 12 13 13 11 12 13 13 14 15 17 18 20 22 22 20 12 12 14 12 7 9 26 24 26 31 15 6 12 6 2 4 5 4 6 3 7 10 15 17 11 6 11 8 6 4 6 8 6 11 11 8
11 11 10 12 12 15 14 14 13 14 14 16 18 19 21 23 25 22 11 8 10 13 13 13 19 20 17 26 19 16 15 14 15 9 5 5 6 5 9 15 17 10 15 9 14 21 22 19 20 18 8 14 17 13
11 12 13 13 13 15 16 14 16 15 15 16 18 20 21 23 25 25 10 9 10 3 5 5 10 18 23 24 26 26 29 11 14 8 8 5 5 6 10 16 7 12 5 16 17 23 20 20 18 21 21 18 9 13
13 14 14 13 14 15 17 16 16 17 15 17 19 21 21 23 25 15 8 7 11 8 2 2 5 13 10 21 21 21 19 18 9 7 5 4 3 3 4 0 8 4 15 8 12 16 8 14 12 10 12 14 12 15
15 14 14 13 15 15 18 17 18 19 16 17 20 20 20 24 17 4 0 4 10 5 2 3 3 4 4 12 15 17 13 12 6 3 3 4 4 6 4 7 20 20 18 8 15 19 11 14 13 14 17 17 9 6
13 16 15 14 16 17 18 19 18 20 17 18 21 19 24 15 4 2 3 1 13 6 3 2 4 2 2 4 3 2 4 2 2 3 3 3 3 2 3 7 29 10 9 9 12 14 13 20 14 13 10 5 6 7
16 17 16 15 16 16 18 19 19 21 17 19 18 22 16 12 6 3 1 10 10 4 3 3 2 1 1 2 2 2 2 2 1 2 1 3 2 3 7 19 16 13 15 15 20 15 19 22 18 17 15 8 11 10
16 17 17 17 17 17 18 20 19 19 16 15 17 10 4 2 2 1 7 17 2 2 3 3 5 4 3 2 2 1 1 2 2 3 4 3 2 7 11 11 13 13 10 15 13 15 18 18 18 14 14 15 9 5
16 18 18 16 17 17 18 20 20 16 16 7 3 2 3 3 5 4 5 5 4 3 3 3 4 3 4 3 3 3 3 3 3 6 1 2 5 13 16 14 14 12 16 16 15 19 18 18 15 9 12 11 9 9
18 17 17 16 16 16 17 20 19 14 6 1 1 2 2 3 1 2 2 3 4 3 4 4 5 5 3 4 3 4 3 2 3 4 4 4 4 2 4 6 7 8 11 8 11 15 19 12 4 3 8 10 5 8
19 16 18 17 16 16 17 19 19 5 2 2 2 1 2 1 2 4 5 4 5 6 3 4 2 4 2 2 3 2 3 1 5 5 3 3 3 5 7 7 9 11 13 15 16 18 13 3 6 7 7 6 8 11
18 18 17 16 16 17 18 18 18 15 7 1 3 3 3 3 5 5 8 4 3 3 4 3 3 3 2 3 2 2 1 5 2 2 4 1 6 9 6 6 8 8 13 15 14 7 10 11 10 14 13 11 14 14
17 16 17 17 17 18 19 19 19 15 4 3 4 5 4 4 4 5 2 5 4 5 8 5 3 4 3 2 3 3 5 2 3 2 2 3 8 10 11 9 9 10 12 11 11 12 14 15 15 14 11 11 14 14
16 17 17 17 19 21 21 21 23 5 3 4 3 5 6 2 1 1 1 3 3 7 6 4 3 3 2 2 3 2 1 4 5 2 2 5 9 11 11 11 10 8 7 7 7 10 13 15 16 15 14 15 16 16
17 14 12 20 19 24 23 15 5 2 3 4 5 3 2 3 1 3 2 3 3 4 3 3 4 3 3 3 3 6 3 4 1 1 3 6 9 8 8 8 8 7 7 8 10 13 14 16 16 15 16 17 17 16
10 4 3 14 23 7 10 3 4 5 3 3 3 4 3 1 4 3 3 1 1 3 2 3 5 5 3 2 4 2 2 2 3 4 4 7 6 6 6 8 8 8 9 10 12 14 14 15 17 17 20 17 17 17
3 2 12 14 14 5 0 4 3 4 5 3 2 2 1 1 4 2 2 3 3 2 0 2 2 1 3 2 2 2 3 4 4 4 5 6 6 8 7 8 9 9 12 14 14 14 15 17 17 13 15 15 15 15
5 4 12 17 9 4 4 5 3 3 3 3 1 1 3 0 2 4 3 2 2 1 2 2 2 2 3 3 3 3 4 4 3 4 3 5 6 8 7 7 9 10 11 12 13 11 12 14 12 10 10 10 11 10
10 13 16 17 8 4 3 4 5 2 3 3 2 2 3 2 2 3 3 2 2 2 5 3 3 2 2 1 3 2 6 5 5 4 4 3 3 6 7 6 6 9 10 13 12 12 11 12 10 10 10 11 11 11
6 8 14 10 5 6 4 3 3 2 3 3 3 4 2 2 3 2 2 2 4 2 2 2 2 1 1 1 1 5 5 4 3 4 5 6 4 6 7 8 10 9 9 8 9 11 12 10 9 9 11 11 11 11
4 14 3 4 4 4 2 1 4 3 3 3 3 3 3 2 2 2 3 4 2 1 1 1 1 1 2 3 5 4 6 7 6 7 7 8 7 7 7 7 9 9 8 9 9 9 9 9 9 9 10 11 11 10
10 6 2 5 3 3 1 2 3 4 4 5 2 3 2 2 3 4 4 3 2 1 1 1 3 4 6 7 8 4 7 10 8 8 9 9 9 9 9 9 8 9 10 9 8 9 9 10 10 10 10 10 10 10
8 3 2 5 3 2 1 2 1 3 3 3 3 4 3 3 3 3 3 3 2 1 2 3 5 6 6 6 5 8 8 9 10 9 8 9 9 9 9 9 8 8 8 8 8 8 8 8 10 7 7 9 9 9
2 3 3 3 1 4 3 2 1 3 3 2 3 2 1 3 3 3 3 3 3 3 4 3 4 5 6 7 7 7 6 8 8 10 8 9 9 9 9 8 8 7 6 8 8 8 8 8 8 9 9 9 11 11
3 4 3 4 2 4 4 3 3 4 4 3 1 2 2 3 4 3 2 3 4 4 3 6 9 8 6 5 8 8 7 7 8 9 7 6 6 8 9 9 8 6 5 7 8 10 10 8 9 11 11 11 10 12
4 2 2 2 3 4 3 2 3 5 3 4 3 2 3 4 3 2 2 3 3 3 5 6 7 9 8 9 8 8 9 10 10 8 8 10 10 8 6 7 8 6 7 9 8 9 11 9 9 10 10 8 7 7
2 2 5 3 4 3 4 3 3 3 3 3 4 4 4 3 3 2 2 2 7 8 8 8 8 8 9 8 7 9 10 10 12 12 13 12 10 9 9 8 9 15 9 8 9 9 9 10 10 8 8 10 8 5
2 2 5 6 6 6 5 4 2 3 5 3 5 3 4 3 2 3 2 4 7 9 9 9 8 8 8 7 6 6 5 5 10 15 15 9 5 4 4 7 7 7 7 10 14 11 11 10 10 9 8 8 6 5
2 3 5 4 5 3 2 2 3 2 4 5 6 5 4 3 5 5 3 5 6 7 7 8 8 8 9 8 7 8 6 3 4 7 9 9 7 8 6 6 7 6 7 9 9 9 12 10 12 9 8 6 5 5
3 4 4 4 3 1 5 7 9 8 5 6 8 8 6 5 3 6 8 4 7 7 8 8 7 6 7 6 6 8 7 6 10 13 12 10 9 8 7 6 5 5 6 7 7 7 8 8 8 9 9 8 8 5
3 3 5 4 4 3 2 4 4 7 4 4 4 4 3 5 5 4 7 4 6 6 8 8 8 6 8 8 8 9 11 8 8 9 12 9 9 8 7 6 6 6 7 8 8 8 9 10 8 8 8 9 7 7
6 8 7 4 4 4 2 4 4 5 3 4 3 3 4 4 4 2 4 9 6 8 9 9 8 9 12 12 10 9 11 9 13 14 13 12 11 10 7 5 5 6 8 8 8 9 10 11 9 9 9 8 8 8
Wind_Direction
325 327 328 335 338 316 323 250 234 237 243 249 252 253 250 250 248 243 236 212 218 240 248 230 230 240 255 240 243 269 357 257 188 228 224 219 230 227 202 231 236 212 194 205 212 234 264 247 267 235 245 301 313 315
310 319 323 321 329 328 311 307 252 248 251 256 260 259 260 254 254 248 248 213 218 230 254 226 230 235 229 240 256 232 232 234 250 277 227 178 203 178 193 248 230 242 215 197 193 215 239 254 264 259 285 287 288 282
316 310 317 319 321 325 314 308 286 257 261 265 268 268 269 261 260 255 250 215 206 231 248 242 232 237 237 235 235 241 244 246 253 223 246 265 227 121 218 234 252 255 244 244 264 253 257 261 267 269 288 288 284 292
305 309 308 315 314 315 313 300 306 271 268 272 277 277 274 272 272 264 230 203 205 122 240 240 208 235 226 225 227 224 244 235 242 243 243 245 231 173 253 256 227 233 135 226 248 259 269 265 256 262 266 264 264 279
294 291 299 303 305 305 310 309 300 294 277 283 285 283 279 285 274 250 236 220 199 190 245 240 277 232 221 216 225 229 231 235 234 227 216 249 240 190 185 127 264 203 241 226 249 257 217 260 251 242 253 262 273 274
282 293 292 295 301 300 309 309 301 301 285 289 289 286 279 287 255 217 31 203 189 173 167 264 286 258 278 201 217 219 219 224 218 193 220 221 220 175 214 235 253 253 242 243 258 261 260 260 270 260 256 264 243 221
286 289 290 293 299 299 308 308 301 302 289 291 291 284 301 243 259 226 192 178 175 132 135 245 267 356 326 69 42 39 171 144 143 219 215 181 211 167 256 254 249 255 260 259 270 280 279 270 264 268 272 226 228 240
273 286 287 291 295 297 304 308 300 302 294 298 299 294 260 215 276 277 294 155 151 104 184 213 239 295 313 87 93 356 78 38 208 219 182 215 219 202 249 241 266 249 256 255 253 259 252 262 266 264 260 230 228 253
273 288 284 285 292 296 305 308 303 299 298 304 321 271 127 175 210 194 1 152 116 193 206 187 171 202 145 111 113 111 134 208 166 224 227 143 239 224 246 275 278 279 258 260 267 267 263 256 255 259 262 261 213 183
265 275 276 285 286 291 302 308 304 300 304 319 332 35 202 209 312 288 163 152 181 254 231 207 115 145 150 154 169 133 192 224 223 228 210 207 250 262 262 272 282 284 277 276 278 278 278 270 259 263 263 254 199 167
265 270 273 280 282 289 299 306 306 306 295 44 238 231 314 315 101 62 158 171 174 232 222 221 133 142 219 131 164 192 184 226 232 239 157 223 255 296 246 272 269 290 314 315 305 299 279 252 203 270 293 286 183 161
262 264 270 275 280 288 293 300 305 291 230 199 295 226 307 114 165 168 177 192 201 223 176 134 156 136 162 170 118 243 199 112 253 154 214 251 272 355 357 358 347 333 341 330 316 297 272 146 92 65 44 64 98 97
254 256 267 275 278 281 286 291 295 298 283 94 224 219 203 156 201 201 176 191 201 156 165 138 98 125 41 60 97 95 156 232 323 100 219 226 341 345 357 349 334 356 349 339 335 26 71 76 78 89 81 72 79 83
252 256 263 271 277 277 277 283 284 290 198 234 208 212 219 173 226 206 215 178 191 128 132 122 121 130 152 105 169 153 235 340 298 273 237 323 358 18 358 346 348 355 347 346 10 41 68 74 73 70 79 83 90 84
255 256 263 270 275 274 270 273 282 240 160 242 231 232 203 236 87 273 179 72 78 127 121 95 57 101 176 127 215 214 14 242 206 234 343 11 13 350 336 337 345 358 356 1 27 57 65 73 76 73 73 77 79 83
244 257 264 265 273 273 253 265 248 118 214 226 224 253 280 98 37 38 69 71 95 121 91 61 139 163 197 176 153 213 210 213 93 52 27 9 3 3 354 5 14 15 32 52 62 70 71 73 76 81 77 74 78 85
226 224 300 315 306 234 208 199 190 207 204 234 234 200 221 193 147 183 117 196 83 85 136 180 165 194 159 183 205 185 60 72 89 55 37 30 11 21 22 34 34 40 52 59 69 69 74 75 77 77 77 74 71 67
206 283 295 296 318 141 184 218 204 196 210 208 240 203 79 190 107 76 119 135 109 208 312 182 147 156 186 229 51 90 105 84 76 74 56 47 46 52 47 51 49 57 67 68 66 68 74 79 78 72 72 72 72 67
218 231 273 289 307 298 195 176 213 206 194 142 240 59 103 2 75 131 114 113 77 287 41 27 86 35 62 32 102 121 117 106 114 87 84 55 46 56 62 66 67 71 72 72 73 70 70 70 76 76 76 78 79 72
253 270 271 269 274 257 206 204 136 214 156 182 99 136 120 136 127 101 103 120 108 58 40 40 54 69 49 9 349 110 120 129 128 122 99 82 73 90 88 81 70 70 72 69 67 71 76 72 66 71 74 77 82 77
305 241 247 214 190 229 270 135 101 160 132 130 152 123 124 117 110 109 112 95 60 37 80 58 70 121 275 309 317 97 107 109 99 111 123 117 90 82 81 77 77 73 73 73 78 73 71 74 77 78 79 77 74 74
256 291 169 168 232 229 229 216 131 146 113 141 131 124 110 98 138 163 110 66 61 57 64 101 115 100 91 65 95 93 112 103 87 88 80 84 87 78 77 79 84 81 76 76 77 78 75 73 75 76 77 78 74 72
291 213 158 198 244 74 237 94 106 160 118 173 127 106 109 130 164 109 81 81 88 0 113 122 134 118 113 111 114 99 87 96 94 93 89 85 84 84 85 81 81 88 89 81 83 91 92 89 83 84 80 77 77 72
273 236 172 194 122 139 125 125 176 102 87 129 154 110 144 136 155 71 83 71 77 51 55 81 95 106 90 92 92 96 97 101 96 86 84 89 86 77 77 79 77 77 86 93 90 82 77 78 79 81 84 90 87 85
165 218 110 49 95 104 107 123 142 93 106 127 91 98 133 119 97 86 104 117 138 125 96 57 76 82 94 94 92 84 72 97 100 98 85 94 99 97 91 82 77 74 79 87 79 77 71 68 64 67 75 83 87 85
140 218 137 147 182 107 138 118 140 159 94 79 71 115 73 89 74 80 91 114 131 134 125 126 126 119 102 101 108 92 83 84 93 94 100 108 104 108 110 108 102 83 72 95 103 97 88 79 79 77 68 62 72 94
117 208 208 219 151 127 82 94 119 96 112 134 175 116 101 83 91 86 63 23 95 109 119 103 105 99 99 90 81 76 73 71 75 82 80 63 55 53 73 93 86 68 77 88 97 106 109 102 97 95 91 72 60 72
154 97 139 222 92 96 109 96 104 150 169 138 91 49 75 97 105 59 77 19 99 99 93 84 83 92 95 95 100 103 96 100 98 92 82 67 59 61 66 67 64 65 64 71 84 93 98 102 101 96 93 102 96 70
61 91 75 49 59 47 34 21 47 37 333 78 103 90 91 51 14 95 76 94 103 105 104 104 95 94 93 93 92 104 125 125 123 107 104 109 102 62 54 74 75 74 80 85 85 92 96 103 105 101 96 92 93 89
65 72 83 52 69 63 50 341 80 343 30 80 101 106 79 56 21 26 72 98 102 107 112 115 119 125 129 126 111 76 41 92 111 125 134 133 129 127 117 110 103 96 95 97 99 94 88 95 103 98 93 77 67 71
81 78 76 69 87 61 88 85 66 51 42 66 78 106 109 131 96 38 25 20 109 120 127 124 118 128 127 117 113 105 87 45 81 97 105 109 112 113 114 110 110 106 102 102 102 102 100 93 94 97 98 96 86 77
74 97 115 103 104 135 73 47 62 92 86 64 91 114 84 69 75 35 352 326 143 126 106 98 97 86 84 82 78 80 94 102 98 98 98 101 99 97 94 89 88 95 98 100 102 105 100 102 104 106 105 102 103 92
99 103 99 109 125 119 163 126 102 118 122 131 115 66 46 72 85 83 17 14 62 91 91 84 80 78 78 81 86 84 78 83 86 89 91 95 97 101 97 92 88 91 97 99 99 103 102 106 105 100 95 95 91 85